Home   Weather   Santa Cruz   Past weeks

Flag for USA Past Weather in Santa Cruz, California, USA — Yesterday and Last 2 Weeks

Now
55 °F

Sunny.


Feels Like: 55 °F
Forecast: 44 / 61 °F
Wind: No wind

Location: Watsonville Municipal Airport

Current Time: Dec 3, 2016 at 11:46:36 am

Latest Report: Dec 3, 2016 at 10:53 am


Visibility: 10 mi

Pressure: 30.26 "Hg

Humidity: 49%

Dew Point: 36 °F

Location of Santa CruzLocation

Past Weather in Santa Cruz — Graph

°F

Santa Cruz Temperature Yesterday

Maximum temperature yesterday: 62 °F (at 1:53 pm)
Minimum temperature yesterday: 38 °F (at 6:53 am)
Average temperature yesterday: 50 °F

High & Low Weather Summary for the Past Weeks

 TemperatureHumidityPressure
High66 °F (Nov 18, 12:53 pm)100% (Nov 19, 4:53 pm)30.36 "Hg (Nov 19, 4:53 pm)
Low37 °F (Nov 30, 4:53 am)23% (Dec 2, 1:53 pm)29.87 "Hg (Nov 26, 4:53 am)
Average51 °F84%30.09 "Hg
* Reported Nov 18 10:53 am — Dec 3 10:53 am, Santa Cruz, Weather by CustomWeather, © 2016

Note: Actual official high and low records may vary slightly from our data, if they occured in-between our weather recording intervals... More about our weather records

Advertising

Santa Cruz Weather History for the Previous 24 Hours

Scroll right to see more
 ConditionsComfort  
Time TempWeatherWind HumidityBarometerVisibility
10:53 am
Sat, Dec 3
55 °FSunny.No wind49%30.26 "Hg10 mi
9:53 am50 °FSunny.No wind57%30.27 "Hg10 mi
8:53 am45 °FSunny.No wind65%30.27 "Hg10 mi
7:53 am41 °FSunny.No wind76%30.27 "Hg10 mi
6:53 am38 °FClear.No wind83%30.27 "Hg10 mi
5:53 am38 °FClear.No wind83%30.25 "Hg10 mi
4:53 am39 °FClear.6 mph76%30.24 "Hg10 mi
3:53 am39 °FClear.No wind76%30.23 "Hg10 mi
2:53 am39 °FClear.3 mph79%30.24 "Hg10 mi
1:53 am41 °FClear.5 mph74%30.23 "Hg10 mi
10:53 pm
Fri, Dec 2
43 °FClear.6 mph62%30.22 "Hg10 mi
9:53 pm42 °FClear.N/A68%30.21 "Hg10 mi
8:53 pm44 °FClear.No wind63%30.20 "Hg10 mi
7:53 pm46 °FClear.7 mph56%30.20 "Hg10 mi
6:53 pm49 °FClear.6 mph50%30.19 "Hg10 mi
5:53 pm54 °FClear.3 mph33%30.19 "Hg10 mi
4:53 pm57 °FClear.5 mph29%30.18 "Hg10 mi
3:53 pm60 °FSunny.8 mph24%30.16 "Hg10 mi
2:53 pm62 °FSunny.5 mph24%30.16 "Hg10 mi
1:53 pm62 °FSunny.12 mph23%30.16 "Hg10 mi
12:53 pm61 °FRefreshingly cool.10 mph25%30.17 "HgN/A
11:53 am60 °FSunny.8 mph26%30.18 "Hg10 mi
Weather by CustomWeather, © 2016

See weather overviewHow to use our weather pages